ORBVIEW 2 (SEASTAR) (24883 NORAD) Tracking and Keplerian Element Data

This shows tracking and keplerian element data for the satellite.

Feedback or suggestion? Click here.




ElementValue
Catalog24883
NameORBVIEW 2 (SEASTAR)
Epoch Orbit45127
Epoch Day34.94766329
Epoch Year2025
RAAN184.94
Inclination98.8035
Eccentricity0.0002776
Argument of Perigee138.3397
Mean Anonmoly221.7999
Mean Motion14.35066231
Decay Rate7.86E-06
L11 24883U 97037A 25034.94766329 .00000786 00000+0 29164-3 0 9996
L22 24883 98.8035 184.9400 0002776 138.3397 221.7999 14.35066231451271



Live tracking and technical data element details for ORBVIEW 2 (SEASTAR) (NORAD 24883). ORBVIEW 2 (SEASTAR) can be tracked NOW for your location showing map with azimuth and elevation plus other details from your city location.







IsCatalogInMostPopularTable: catalog: 24883, numindb: 434
Update: records affected: 1



GetName: 24883 ORBVIEW 2 (SEASTAR)

Hit Count: updated at: Thu, 15 May 2025 10:55:01 GMT